Weather History for Fayetteville, AR

Change the Weather History Date:

Friday, January 11, 2013

  Actual Average Record
Temperature  
Mean Temperature 55 °F 35 °F  
Max Temperature 65 °F 46 °F 71 °F (1995)
Min Temperature 45 °F 25 °F -13 °F (1977)
Degree Days  
Heating Degree Days 10 30  
Month to date heating degree days 294 330  
Since 1 July heating degree days 1812 2013  
Growing Degree Days 5 (Base 50)    
Moisture  
Dew Point 44 °F    
Average Humidity 65    
Maximum Humidity 86    
Minimum Humidity 44    
Precipitation  
Precipitation 0.01 in 0.09 in 0.52 in (2001)
Month to date precipitation 0.18 1.03  
Year to date precipitation 0.18 1.03  
Sea Level Pressure  
Sea Level Pressure 29.84 in    
Wind  
Wind Speed 12 mph (South)    
Max Wind Speed 28 mph    
Max Gust Speed 37 mph    
Visibility 10 miles    
Events      
T = Trace of Precipitation, MM = Missing Value Source: NWS Daily Summary

Daily Weather History Graph

Daily Weather History Graph

Search for Another Location

Airport:

Trip Planner

Search our weather history database for the weather conditions in past years. The results will help you decide how hot, cold, wet, or windy it might be!

Date:

Astronomy

Jan. 11, 2013 Rise Set
Actual Time 7:27 AM CST 5:22 PM CST
Civil Twilight 6:59 AM CST 5:50 PM CST
Nautical Twilight 6:27 AM CST 6:22 PM CST
Astronomical Twilight 5:56 AM CST 6:53 PM CST
Moon 7:02 AM CST (1/11) 5:39 PM CST (1/11)
Length of Visible Light 10h 51m
Length of Day
9h 55m
Waning Crescent, 0% of the Moon is Illuminated
Jan 11
Waning Crescent
Jan 11
New
Jan 18
First Quarter
Jan 26
Full
Feb 3
Last Quarter

Hourly Weather History & Observations

Time (CST) Temp. Windchill Dew Point Humidity Pressure Visibility Wind Dir Wind Speed Gust Speed Precip Events Conditions
12:53 AM 48.0 °F - 44.1 °F 86% 29.90 in 10.0 mi Variable 6.9 mph - N/A   Overcast
1:53 AM 48.0 °F - 44.1 °F 86% 29.91 in 10.0 mi South 9.2 mph - N/A   Overcast
2:46 AM 46.4 °F 41.9 °F 42.8 °F 87% 29.90 in 10.0 mi South 9.2 mph - N/A   Mostly Cloudy
2:53 AM 46.0 °F 41.4 °F 43.0 °F 89% 29.90 in 10.0 mi South 9.2 mph - N/A   Mostly Cloudy
3:53 AM 46.0 °F 41.9 °F 43.0 °F 89% 29.89 in 10.0 mi SSW 8.1 mph - N/A   Partly Cloudy
4:53 AM 46.0 °F 41.4 °F 43.0 °F 89% 29.86 in 10.0 mi SSW 9.2 mph - N/A   Clear
5:53 AM 46.0 °F 41.4 °F 43.0 °F 89% 29.86 in 10.0 mi SSW 9.2 mph - N/A   Clear
6:53 AM 46.0 °F 40.6 °F 43.0 °F 89% 29.88 in 10.0 mi South 11.5 mph 19.6 mph N/A   Clear
7:53 AM 46.9 °F - 43.0 °F 86% 29.88 in 10.0 mi SSW 9.2 mph - N/A   Clear
8:53 AM 50.0 °F - 43.0 °F 77% 29.87 in 10.0 mi South 13.8 mph - N/A   Clear
9:53 AM 54.0 °F - 44.1 °F 69% 29.88 in 10.0 mi South 9.2 mph - N/A   Clear
10:53 AM 57.0 °F - 45.0 °F 64% 29.86 in 10.0 mi South 12.7 mph 23.0 mph 0.01 in   Clear
11:53 AM 60.1 °F - 43.0 °F 53% 29.83 in 10.0 mi SSW 19.6 mph 36.8 mph N/A   Clear
12:53 PM 62.1 °F - 42.1 °F 48% 29.81 in 10.0 mi SSW 23.0 mph 33.4 mph N/A   Clear
1:53 PM 64.4 °F - 42.8 °F 45% 29.77 in 10.0 mi South 20.7 mph 26.5 mph N/A   Clear
2:53 PM 64.0 °F - 44.1 °F 48% 29.76 in 10.0 mi South 20.7 mph 28.8 mph N/A   Clear
3:53 PM 63.0 °F - 43.0 °F 48% 29.76 in 10.0 mi South 18.4 mph - N/A   Clear
4:53 PM 62.1 °F - 43.0 °F 50% 29.76 in 10.0 mi South 11.5 mph 20.7 mph N/A   Clear
5:53 PM 57.9 °F - 43.0 °F 58% 29.77 in 10.0 mi South 6.9 mph - N/A   Clear
6:53 PM 55.9 °F - 44.1 °F 64% 29.80 in 10.0 mi South 4.6 mph - N/A   Clear
7:53 PM 57.0 °F - 44.1 °F 62% 29.81 in 10.0 mi South 12.7 mph 18.4 mph N/A   Clear
8:53 PM 57.0 °F - 44.1 °F 62% 29.82 in 10.0 mi South 9.2 mph - N/A   Clear
9:53 PM 57.0 °F - 45.0 °F 64% 29.83 in 10.0 mi South 5.8 mph - N/A   Clear
10:53 PM 55.0 °F - 45.0 °F 69% 29.83 in 10.0 mi South 9.2 mph - N/A   Clear
11:53 PM 55.0 °F - 45.0 °F 69% 29.82 in 10.0 mi SSW 5.8 mph - N/A   Clear